Location: ????????
(55.0808°N, 38.5463°E)
Time: 02:14:41
(UTC+00:00)

Nimbus 3 Rocket - Pass Details

Date: 23 September 2024
Orbit: 1072 x 1131 km, 99.9° (Epoch: 03 October)

Event Time Altitude Azimuth Distance (km) Brightness Sun altitude
Rises 21:38:22 0° 18° (NNE) 3,912 9.1 -35.3°
Reaches altitude 10° 21:40:56 10° 20° (NNE) 2,945 8.3 -35.3°
Enters shadow 21:46:19 60° 39° (NE) 1,232 5.6 -35.2°
